FENGYUN 1C DEB, 31016

Orbit data source: Space-Track

FENGYUN 1C DEB, 31016 is space debris in SSO originally from a launch on Mon, 10 May 1999 UTC launched from the Taiyaun Space Center, China (TSC). Fengyun 1C debris stems from the Chinese weather satellite Fengyun-1C, which was intentionally destroyed by a Chinese anti-satellite missile in 2007. This event dramatically increased the amount of space debris, with thousands of trackable fragments posing hazards to satellites and human spaceflight. The Fengyun 1C debris cloud has become a focal point in discussions about space sustainability and the need for international regulations to prevent the creation of new debris.

Loading next visibility...
Identifier
31016, 1999-025BDJ
Orbit
SSO
Country
Flag of CNCN / PRC
Related business
Manufacturer
Unknown
Mission
Spacecraft
Bus & Motor
Unknown
Mass
Unknown
Launch date (UTC)
1999-05-10 (27 years ago)
Launch vehicle
Unknown
Launch site
Taiyaun Space Center, China (TSC)
Object type
Payload
Rocket body
Debris
Shape & HBR
Unknown shape, 0.1 m
Radar Cross Section
Small (<0.1 m²)

Expand to show TLE details & history
Last TLE update: 23 hours ago

TLE from 23 hours ago
0 FENGYUN 1C DEB
1 31016U 99025BDJ 26237.84461897  .00000358  00000-0  14320-3 0  9992
2 31016  98.4269 250.9869 0111440 236.6700 250.5031 14.30834493 11327
Epoch: 2026-08-25T20:16Z
TLE epoch observation values (Epoch: 2026-08-25T20:16:15.079Z)
Latitude
53.28186°
Longitude
164.21298°
Altitude
825.086 km
Speed
7.431 km/s
True Right ascension
05h 29m 31s
True Declination
53° 07' 06"
Sunlit
Object was in daylight at epoch
Visualization orbit readout
Latitude
Unknown
Longitude
Unknown
Altitude
Unknown
Speed
Unknown
Apparent Right ascension
Unknown
Apparent Declination
Unknown
Sunlit
N/A
Visualization observer readout
Local Sidereal Time
10:22:31
Azimuth
Unknown
Elevation
Unknown
Doppler factor
Unknown
Orbital elements
Apogee altitude
865.911 km
Perigee altitude
706.235 km
Semi-major axis
7,164.21 km
Eccentricity
0.01114
Inclination
98.4269°
RAAN
250.9869°
Arg. of periapsis
236.67°
True anomaly
249.30497°
Mean anomaly
250.5031°
Eccentric anomaly
249.90347°
Mean motion
3.57924 °/min
Orbital period
100.58 mins
BSTAR
0.0001432
Loading maneuver chart data...
Computing Atmospheric mass density...
Loading historical data...
Loading historical data...
Loading historical data...
Loading historical data...
Loading historical data...
Loading historical data...
Loading historical data...

Documentation

Showing up to 5 results
|